| time (UTC) | temp F | wind direction | speed MPH | gust MPH | rain 1hr in | rain 24hr in | rain mn in | humidity % | barometer mb |
| 20260906053329 | 84 | 360 | 3.0 | 9.0 | 0.00 | 0.00 | 0.00 | 82 | 1012.5 |
| 20260906052848 | 84 | 360 | 4.0 | 9.0 | 0.00 | 0.00 | 0.00 | 82 | 1012.5 |
| 20260906052327 | 84 | 360 | 2.0 | 10.0 | 0.00 | 0.00 | 0.00 | 81 | 1012.5 |
| 20260906051826 | 84 | 360 | 4.0 | 9.0 | 0.00 | 0.00 | 0.00 | 81 | 1012.4 |
| 20260906051325 | 84 | 360 | 2.0 | 5.0 | 0.00 | 0.00 | 0.00 | 80 | 1012.3 |
| 20260906050824 | 84 | 360 | 3.0 | 6.0 | 0.00 | 0.00 | 0.00 | 80 | 1012.3 |
| 20260906050322 | 85 | 360 | 4.0 | 6.0 | 0.00 | 0.00 | 0.00 | 80 | 1012.4 |
| 20260906045821 | 85 | 360 | 3.0 | 9.0 | 0.00 | 0.00 | 0.00 | 79 | 1012.4 |
| 20260906045322 | 85 | 360 | 4.0 | 9.0 | 0.00 | 0.00 | 0.00 | 79 | 1012.5 |
| 20260906044820 | 85 | 360 | 5.0 | 8.0 | 0.00 | 0.00 | 0.00 | 79 | 1012.5 |
| 20260906044336 | 85 | 360 | 4.0 | 10.0 | 0.00 | 0.00 | 0.00 | 78 | 1012.5 |
| 20260906043815 | 85 | 360 | 5.0 | 10.0 | 0.00 | 0.00 | 0.00 | 78 | 1012.4 |
| 20260906043314 | 85 | 360 | 5.0 | 9.0 | 0.00 | 0.00 | 0.00 | 78 | 1012.5 |
| 20260906042834 | 85 | 360 | 3.0 | 9.0 | 0.00 | 0.00 | 0.00 | 77 | 1012.4 |
| 20260906042312 | 86 | 360 | 5.0 | 9.0 | 0.00 | 0.00 | 0.00 | 77 | 1012.4 |
| 20260906041813 | 86 | 360 | 5.0 | 9.0 | 0.00 | 0.00 | 0.00 | 77 | 1012.4 |
| 20260906041354 | 86 | 360 | 4.0 | 8.0 | 0.00 | 0.00 | 0.00 | 76 | 1012.3 |
| 20260906040833 | 86 | 360 | 2.0 | 8.0 | 0.00 | 0.00 | 0.00 | 76 | 1012.3 |
| 20260906040332 | 86 | 360 | 3.0 | 8.0 | 0.00 | 0.00 | 0.00 | 76 | 1012.3 |
| 20260906035832 | 86 | 360 | 4.0 | 10.0 | 0.00 | 0.00 | 0.00 | 75 | 1012.3 |
| 20260906035332 | 86 | 360 | 4.0 | 11.0 | 0.00 | 0.00 | 0.00 | 75 | 1012.2 |
| 20260906034813 | 86 | 360 | 4.0 | 11.0 | 0.00 | 0.00 | 0.00 | 75 | 1012.1 |
| 20260906034332 | 86 | 360 | 5.0 | 11.0 | 0.00 | 0.00 | 0.00 | 74 | 1012.0 |
| 20260906033831 | 87 | 360 | 4.0 | 6.0 | 0.00 | 0.00 | 0.00 | 74 | 1012.0 |
| 20260906033351 | 87 | 360 | 3.0 | 8.0 | 0.00 | 0.00 | 0.00 | 74 | 1012.1 |
| 20260906032848 | 87 | 360 | 4.0 | 8.0 | 0.00 | 0.00 | 0.00 | 73 | 1012.1 |
| 20260906032325 | 87 | 360 | 4.0 | 9.0 | 0.00 | 0.00 | 0.00 | 73 | 1012.1 |
| 20260906031825 | 87 | 360 | 4.0 | 9.0 | 0.00 | 0.00 | 0.00 | 73 | 1012.1 |
| 20260906031325 | 87 | 360 | 3.0 | 11.0 | 0.00 | 0.00 | 0.00 | 73 | 1012.0 |
| 20260906030822 | 87 | 360 | 6.0 | 10.0 | 0.00 | 0.00 | 0.00 | 73 | 1011.8 |
| 20260906030321 | 88 | 360 | 3.0 | 11.0 | 0.00 | 0.00 | 0.00 | 72 | 1011.8 |
| 20260906025820 | 88 | 360 | 5.0 | 11.0 | 0.00 | 0.00 | 0.00 | 72 | 1011.6 |
| 20260906025319 | 88 | 360 | 6.0 | 10.0 | 0.00 | 0.00 | 0.00 | 72 | 1011.5 |
| 20260906024842 | 88 | 360 | 4.0 | 9.0 | 0.00 | 0.00 | 0.00 | 72 | 1011.4 |
| 20260906024320 | 88 | 360 | 4.0 | 9.0 | 0.00 | 0.00 | 0.00 | 72 | 1011.3 |
| 20260906023821 | 88 | 360 | 3.0 | 8.0 | 0.00 | 0.00 | 0.00 | 71 | 1011.1 |
| 20260906023319 | 88 | 360 | 3.0 | 9.0 | 0.00 | 0.00 | 0.00 | 71 | 1011.0 |
| 20260906022818 | 88 | 360 | 4.0 | 11.0 | 0.00 | 0.00 | 0.00 | 71 | 1011.0 |
| 20260906022318 | 88 | 360 | 5.0 | 11.0 | 0.00 | 0.00 | 0.00 | 70 | 1010.9 |
| 20260906021838 | 88 | 360 | 3.0 | 9.0 | 0.00 | 0.00 | 0.00 | 70 | 1010.9 |
| 20260906021315 | 88 | 360 | 4.0 | 9.0 | 0.00 | 0.00 | 0.00 | 69 | 1010.8 |
| 20260906020836 | 88 | 360 | 3.0 | 6.0 | 0.00 | 0.00 | 0.00 | 68 | 1010.7 |
| 20260906020314 | 88 | 360 | 3.0 | 8.0 | 0.00 | 0.00 | 0.00 | 68 | 1010.6 |
| 20260906015813 | 88 | 360 | 3.0 | 6.0 | 0.00 | 0.00 | 0.00 | 67 | 1010.5 |
| 20260906015313 | 88 | 360 | 3.0 | 6.0 | 0.00 | 0.00 | 0.00 | 66 | 1010.4 |
| 20260906014812 | 89 | 360 | 2.0 | 9.0 | 0.00 | 0.00 | 0.00 | 65 | 1010.3 |
| 20260906014314 | 89 | 360 | 3.0 | 9.0 | 0.00 | 0.00 | 0.00 | 64 | 1010.2 |
| 20260906013814 | 89 | 360 | 4.0 | 9.0 | 0.00 | 0.00 | 0.00 | 64 | 1010.1 |
| 20260906013335 | 90 | 360 | 5.0 | 9.0 | 0.00 | 0.00 | 0.00 | 63 | 1010.1 |
| 20260906012832 | 90 | 360 | 4.0 | 9.0 | 0.00 | 0.00 | 0.00 | 63 | 1010.1 |
| 20260906012313 | 90 | 360 | 5.0 | 12.0 | 0.00 | 0.00 | 0.00 | 62 | 1009.9 |
| 20260906011832 | 91 | 360 | 5.0 | 12.0 | 0.00 | 0.00 | 0.00 | 62 | 1009.9 |
| 20260906011331 | 91 | 360 | 4.0 | 10.0 | 0.00 | 0.00 | 0.00 | 61 | 1009.9 |
| 20260906010831 | 92 | 360 | 6.0 | 13.0 | 0.00 | 0.00 | 0.00 | 61 | 1009.9 |
| 20260906010331 | 93 | 360 | 7.0 | 13.0 | 0.00 | 0.00 | 0.00 | 59 | 1009.9 |
| 20260906005826 | 93 | 360 | 6.0 | 11.0 | 0.00 | 0.00 | 0.00 | 57 | 1009.9 |
| 20260906005326 | 93 | 360 | 4.0 | 10.0 | 0.00 | 0.00 | 0.00 | 57 | 1009.8 |
| 20260906004826 | 93 | 360 | 4.0 | 10.0 | 0.00 | 0.00 | 0.00 | 56 | 1009.8 |
| 20260906004325 | 93 | 360 | 3.0 | 10.0 | 0.00 | 0.00 | 0.00 | 56 | 1009.7 |
| 20260906003825 | 94 | 360 | 4.0 | 10.0 | 0.00 | 0.00 | 0.00 | 56 | 1009.8 |
| 20260906003344 | 94 | 360 | 3.0 | 10.0 | 0.00 | 0.00 | 0.00 | 55 | 1009.7 |
| 20260906002823 | 94 | 360 | 3.0 | 9.0 | 0.00 | 0.00 | 0.00 | 55 | 1009.6 |
| 20260906002323 | 94 | 360 | 2.0 | 8.0 | 0.00 | 0.00 | 0.00 | 55 | 1009.5 |
| 20260906001823 | 95 | 360 | 3.0 | 9.0 | 0.00 | 0.00 | 0.00 | 54 | 1009.6 |
| 20260906001324 | 95 | 360 | 3.0 | 12.0 | 0.00 | 0.00 | 0.00 | 54 | 1009.5 |
| 20260906000842 | 95 | 360 | 4.0 | 12.0 | 0.00 | 0.00 | 0.00 | 53 | 1009.6 |
| 20260906000320 | 95 | 360 | 4.0 | 11.0 | 0.00 | 0.00 | 0.00 | 53 | 1009.6 |
| 20260905235820 | 95 | 360 | 3.0 | 10.0 | 0.00 | 0.00 | 0.00 | 54 | 1009.5 |
| 20260905235319 | 95 | 360 | 3.0 | 10.0 | 0.00 | 0.00 | 0.00 | 54 | 1009.5 |
| 20260905234817 | 95 | 360 | 6.0 | 11.0 | 0.00 | 0.00 | 0.00 | 54 | 1009.4 |
| 20260905234317 | 95 | 360 | 4.0 | 11.0 | 0.00 | 0.00 | 0.00 | 53 | 1009.4 |
| 20260905233816 | 95 | 360 | 5.0 | 11.0 | 0.00 | 0.00 | 0.00 | 53 | 1009.3 |
| 20260905233314 | 95 | 360 | 5.0 | 10.0 | 0.00 | 0.00 | 0.00 | 54 | 1009.3 |
| 20260905232814 | 95 | 360 | 3.0 | 13.0 | 0.00 | 0.00 | 0.00 | 54 | 1009.4 |
| 20260905232314 | 95 | 360 | 4.0 | 14.0 | 0.00 | 0.00 | 0.00 | 54 | 1009.4 |
| 20260905231814 | 95 | 360 | 4.0 | 14.0 | 0.00 | 0.00 | 0.00 | 54 | 1009.2 |
| 20260905231332 | 95 | 360 | 3.0 | 9.0 | 0.00 | 0.00 | 0.00 | 54 | 1009.2 |
| 20260905230851 | 95 | 360 | 2.0 | 11.0 | 0.00 | 0.00 | 0.00 | 53 | 1009.2 |
| 20260905230327 | 95 | 360 | 2.0 | 11.0 | 0.00 | 0.00 | 0.00 | 52 | 1009.2 |
| 20260905225827 | 96 | 360 | 1.0 | 6.0 | 0.00 | 0.00 | 0.00 | 52 | 1009.2 |
| 20260905225326 | 96 | 360 | 2.0 | 5.0 | 0.00 | 0.00 | 0.00 | 50 | 1009.3 |
| 20260905224826 | 97 | 360 | 2.0 | 9.0 | 0.00 | 0.00 | 0.00 | 50 | 1009.1 |
| 20260905224324 | 98 | 360 | 3.0 | 9.0 | 0.00 | 0.00 | 0.00 | 49 | 1009.0 |
| 20260905223331 | 99 | 360 | 2.0 | 8.0 | 0.00 | 0.00 | 0.00 | 45 | 1009.0 |
| 20260905222831 | 100 | 360 | 3.0 | 6.0 | 0.00 | 0.00 | 0.00 | 44 | 1009.0 |
| 20260905222332 | 100 | 360 | 1.0 | 6.0 | 0.00 | 0.00 | 0.00 | 44 | 1009.0 |
| 20260905221813 | 100 | 360 | 1.0 | 8.0 | 0.00 | 0.00 | 0.00 | 45 | 1009.0 |
| 20260905221351 | 101 | 360 | 2.0 | 8.0 | 0.00 | 0.00 | 0.00 | 42 | 1009.1 |
| 20260905220850 | 101 | 360 | 2.0 | 9.0 | 0.00 | 0.00 | 0.00 | 46 | 1009.0 |
| 20260905220317 | 101 | 360 | 4.0 | 10.0 | 0.00 | 0.00 | 0.00 | 46 | 1009.1 |
| 20260905215853 | 100 | 360 | 3.0 | 10.0 | 0.00 | 0.00 | 0.00 | 45 | 1009.2 |
| 20260905215331 | 100 | 360 | 2.0 | 8.0 | 0.00 | 0.00 | 0.00 | 48 | 1009.2 |
| 20260905214830 | 99 | 360 | 2.0 | 5.0 | 0.00 | 0.00 | 0.00 | 46 | 1009.2 |
| 20260905214348 | 100 | 360 | 3.0 | 9.0 | 0.00 | 0.00 | 0.00 | 45 | 1009.1 |
| 20260905213825 | 101 | 360 | 3.0 | 9.0 | 0.00 | 0.00 | 0.00 | 45 | 1009.1 |
| 20260905213324 | 102 | 360 | 3.0 | 10.0 | 0.00 | 0.00 | 0.00 | 42 | 1009.2 |
| 20260905212823 | 103 | 360 | 3.0 | 9.0 | 0.00 | 0.00 | 0.00 | 41 | 1009.2 |
| 20260905212323 | 103 | 360 | 3.0 | 8.0 | 0.00 | 0.00 | 0.00 | 41 | 1009.1 |
| 20260905211822 | 102 | 360 | 4.0 | 8.0 | 0.00 | 0.00 | 0.00 | 44 | 1009.1 |
| 20260905211323 | 102 | 360 | 1.0 | 6.0 | 0.00 | 0.00 | 0.00 | 42 | 1009.2 |
| 20260905210842 | 101 | 360 | 3.0 | 6.0 | 0.00 | 0.00 | 0.00 | 45 | 1009.4 |
| 20260905210318 | 101 | 360 | 2.0 | 11.0 | 0.00 | 0.00 | 0.00 | 44 | 1009.5 |
| 20260905205818 | 101 | 360 | 4.0 | 11.0 | 0.00 | 0.00 | 0.00 | 43 | 1009.5 |
| 20260905205317 | 100 | 360 | 3.0 | 5.0 | 0.00 | 0.00 | 0.00 | 46 | 1009.6 |
| 20260905204814 | 99 | 360 | 1.0 | 5.0 | 0.00 | 0.00 | 0.00 | 45 | 1009.7 |
| 20260905204313 | 99 | 360 | 1.0 | 6.0 | 0.00 | 0.00 | 0.00 | 44 | 1009.7 |
| 20260905203831 | 100 | 360 | 4.0 | 9.0 | 0.00 | 0.00 | 0.00 | 43 | 1009.8 |
| 20260905203330 | 101 | 360 | 4.0 | 9.0 | 0.00 | 0.00 | 0.00 | 44 | 1010.0 |
| 20260905202827 | 101 | 360 | 2.0 | 13.0 | 0.00 | 0.00 | 0.00 | 48 | 1010.1 |
| 20260905202326 | 101 | 360 | 4.0 | 12.0 | 0.00 | 0.00 | 0.00 | 44 | 1010.2 |
| 20260905201824 | 101 | 360 | 1.0 | 9.0 | 0.00 | 0.00 | 0.00 | 44 | 1010.3 |
| 20260905201345 | 100 | 360 | 5.0 | 11.0 | 0.00 | 0.00 | 0.00 | 44 | 1010.5 |
| 20260905200822 | 100 | 360 | 6.0 | 10.0 | 0.00 | 0.00 | 0.00 | 47 | 1010.5 |
| 20260905200343 | 100 | 360 | 3.0 | 8.0 | 0.00 | 0.00 | 0.00 | 47 | 1010.5 |
| 20260905195822 | 100 | 360 | 1.0 | 6.0 | 0.00 | 0.00 | 0.00 | 44 | 1010.7 |
| 20260905195323 | 100 | 360 | 2.0 | 6.0 | 0.00 | 0.00 | 0.00 | 51 | 1010.8 |
| 20260905194823 | 99 | 360 | 2.0 | 4.0 | 0.00 | 0.00 | 0.00 | 47 | 1010.9 |
| 20260905194324 | 99 | 360 | 1.0 | 5.0 | 0.00 | 0.00 | 0.00 | 51 | 1010.9 |
| 20260905193825 | 99 | 360 | 2.0 | 9.0 | 0.00 | 0.00 | 0.00 | 46 | 1011.0 |
| 20260905193323 | 101 | 360 | 1.0 | 9.0 | 0.00 | 0.00 | 0.00 | 47 | 1011.1 |
| 20260905192820 | 101 | 360 | 3.0 | 11.0 | 0.00 | 0.00 | 0.00 | 45 | 1011.3 |
| 20260905192320 | 100 | 360 | 4.0 | 11.0 | 0.00 | 0.00 | 0.00 | 45 | 1011.3 |
| 20260905191818 | 100 | 360 | 3.0 | 6.0 | 0.00 | 0.00 | 0.00 | 49 | 1011.3 |
| 20260905191319 | 99 | 360 | 3.0 | 6.0 | 0.00 | 0.00 | 0.00 | 52 | 1011.3 |
| 20260905190819 | 98 | 360 | 3.0 | 10.0 | 0.00 | 0.00 | 0.00 | 51 | 1011.3 |
| 20260905190318 | 98 | 360 | 3.0 | 11.0 | 0.00 | 0.00 | 0.00 | 49 | 1011.6 |
| 20260905185819 | 98 | 360 | 2.0 | 11.0 | 0.00 | 0.00 | 0.00 | 53 | 1011.7 |
| 20260905185318 | 97 | 360 | 3.0 | 11.0 | 0.00 | 0.00 | 0.00 | 51 | 1011.9 |
| 20260905184839 | 96 | 360 | 4.0 | 11.0 | 0.00 | 0.00 | 0.00 | 55 | 1011.9 |
| 20260905184318 | 96 | 360 | 2.0 | 6.0 | 0.00 | 0.00 | 0.00 | 54 | 1012.1 |
| 20260905183817 | 97 | 360 | 2.0 | 4.0 | 0.00 | 0.00 | 0.00 | 55 | 1012.1 |
| 20260905183316 | 97 | 360 | 2.0 | 6.0 | 0.00 | 0.00 | 0.00 | 53 | 1012.3 |
| 20260905182837 | 98 | 360 | 1.0 | 8.0 | 0.00 | 0.00 | 0.00 | 51 | 1012.3 |
| 20260905182319 | 99 | 360 | 3.0 | 12.0 | 0.00 | 0.00 | 0.00 | 51 | 1012.4 |
| 20260905181819 | 99 | 360 | 2.0 | 13.0 | 0.00 | 0.00 | 0.00 | 54 | 1012.5 |
| 20260905181317 | 98 | 360 | 5.0 | 13.0 | 0.00 | 0.00 | 0.00 | 54 | 1012.6 |
| 20260905180818 | 98 | 360 | 5.0 | 13.0 | 0.00 | 0.00 | 0.00 | 51 | 1012.8 |
| 20260905180318 | 98 | 360 | 1.0 | 8.0 | 0.00 | 0.00 | 0.00 | 56 | 1012.8 |
| 20260905175815 | 97 | 360 | 4.0 | 10.0 | 0.00 | 0.00 | 0.00 | 53 | 1012.8 |
| 20260905175315 | 97 | 360 | 6.0 | 10.0 | 0.00 | 0.00 | 0.00 | 57 | 1013.0 |
| 20260905174836 | 96 | 360 | 2.0 | 8.0 | 0.00 | 0.00 | 0.00 | 56 | 1013.0 |
| 20260905174313 | 96 | 360 | 4.0 | 9.0 | 0.00 | 0.00 | 0.00 | 58 | 1013.1 |
| 20260905173814 | 95 | 360 | 4.0 | 9.0 | 0.00 | 0.00 | 0.00 | 57 | 1013.1 |
| 20260905173314 | 96 | 360 | 2.0 | 11.0 | 0.00 | 0.00 | 0.00 | 55 | 1013.2 |
| 20260905172814 | 96 | 360 | 4.0 | 11.0 | 0.00 | 0.00 | 0.00 | 56 | 1013.3 |
| 20260905172314 | 96 | 360 | 7.0 | 12.0 | 0.00 | 0.00 | 0.00 | 56 | 1013.4 |
| 20260905171850 | 96 | 360 | 5.0 | 12.0 | 0.00 | 0.00 | 0.00 | 57 | 1013.5 |
| 20260905171327 | 96 | 360 | 3.0 | 6.0 | 0.00 | 0.00 | 0.00 | 57 | 1013.5 |
| 20260905170825 | 95 | 360 | 1.0 | 11.0 | 0.00 | 0.00 | 0.00 | 62 | 1013.6 |
| 20260905170325 | 95 | 360 | 4.0 | 11.0 | 0.00 | 0.00 | 0.00 | 60 | 1013.7 |
| 20260905165845 | 94 | 360 | 3.0 | 6.0 | 0.00 | 0.00 | 0.00 | 63 | 1013.8 |
| 20260905165324 | 94 | 360 | 4.0 | 8.0 | 0.00 | 0.00 | 0.00 | 62 | 1013.8 |
| 20260905164823 | 94 | 360 | 3.0 | 6.0 | 0.00 | 0.00 | 0.00 | 60 | 1013.8 |
| 20260905164344 | 95 | 360 | 3.0 | 11.0 | 0.00 | 0.00 | 0.00 | 60 | 1013.8 |
| 20260905163823 | 95 | 360 | 4.0 | 11.0 | 0.00 | 0.00 | 0.00 | 61 | 1013.8 |
| 20260905163322 | 94 | 360 | 3.0 | 11.0 | 0.00 | 0.00 | 0.00 | 61 | 1013.9 |
| 20260905162839 | 94 | 360 | 5.0 | 9.0 | 0.00 | 0.00 | 0.00 | 62 | 1013.9 |
| 20260905162317 | 94 | 360 | 4.0 | 11.0 | 0.00 | 0.00 | 0.00 | 63 | 1013.9 |
| 20260905161817 | 93 | 360 | 3.0 | 8.0 | 0.00 | 0.00 | 0.00 | 66 | 1013.9 |
| 20260905161315 | 92 | 360 | 4.0 | 8.0 | 0.00 | 0.00 | 0.00 | 64 | 1014.0 |
| 20260905160813 | 92 | 360 | 4.0 | 10.0 | 0.00 | 0.00 | 0.00 | 67 | 1014.0 |
| 20260905160350 | 91 | 360 | 3.0 | 10.0 | 0.00 | 0.00 | 0.00 | 67 | 1014.0 |
| 20260905155829 | 91 | 360 | 3.0 | 9.0 | 0.00 | 0.00 | 0.00 | 69 | 1014.0 |
| 20260905155348 | 91 | 360 | 2.0 | 9.0 | 0.00 | 0.00 | 0.00 | 68 | 1014.1 |
| 20260905154826 | 91 | 360 | 1.0 | 6.0 | 0.00 | 0.00 | 0.00 | 68 | 1014.1 |
| 20260905154326 | 91 | 360 | 3.0 | 9.0 | 0.00 | 0.00 | 0.00 | 67 | 1014.1 |
| 20260905153825 | 91 | 360 | 4.0 | 9.0 | 0.00 | 0.00 | 0.00 | 69 | 1014.0 |
| 20260905153324 | 91 | 360 | 3.0 | 9.0 | 0.00 | 0.00 | 0.00 | 72 | 1013.9 |
| 20260905152843 | 90 | 360 | 3.0 | 9.0 | 0.00 | 0.00 | 0.00 | 74 | 1013.9 |
| 20260905152321 | 90 | 360 | 3.0 | 6.0 | 0.00 | 0.00 | 0.00 | 73 | 1013.9 |
| 20260905151818 | 89 | 360 | 3.0 | 8.0 | 0.00 | 0.00 | 0.00 | 75 | 1013.9 |
| 20260905151336 | 89 | 360 | 4.0 | 9.0 | 0.00 | 0.00 | 0.00 | 76 | 1013.8 |
| 20260905150813 | 88 | 360 | 6.0 | 9.0 | 0.00 | 0.00 | 0.00 | 77 | 1013.8 |
| 20260905150328 | 88 | 360 | 3.0 | 9.0 | 0.00 | 0.00 | 0.00 | 78 | 1013.8 |
| 20260905145846 | 88 | 360 | 3.0 | 9.0 | 0.00 | 0.00 | 0.00 | 80 | 1013.8 |
| 20260905145323 | 87 | 360 | 4.0 | 10.0 | 0.00 | 0.00 | 0.00 | 81 | 1013.7 |
| 20260905144816 | 87 | 360 | 5.0 | 10.0 | 0.00 | 0.00 | 0.00 | 83 | 1013.8 |
| 20260905144315 | 86 | 360 | 2.0 | 6.0 | 0.00 | 0.00 | 0.00 | 84 | 1013.8 |
| 20260905143814 | 85 | 360 | 3.0 | 10.0 | 0.00 | 0.00 | 0.00 | 86 | 1013.8 |
| 20260905143313 | 84 | 360 | 3.0 | 9.0 | 0.00 | 0.00 | 0.00 | 87 | 1013.8 |
| 20260905142813 | 84 | 360 | 3.0 | 9.0 | 0.00 | 0.00 | 0.00 | 89 | 1013.9 |
| 20260905142332 | 83 | 360 | 5.0 | 9.0 | 0.00 | 0.00 | 0.00 | 91 | 1013.9 |
| 20260905141830 | 83 | 360 | 4.0 | 8.0 | 0.00 | 0.00 | 0.00 | 93 | 1013.8 |
| 20260905141330 | 82 | 360 | 2.0 | 5.0 | 0.00 | 0.00 | 0.00 | 96 | 1013.8 |
| 20260905140830 | 81 | 360 | 3.0 | 6.0 | 0.00 | 0.00 | 0.00 | 97 | 1013.7 |
| 20260905140330 | 81 | 360 | 2.0 | 6.0 | 0.00 | 0.00 | 0.00 | 98 | 1013.6 |
| 20260905135828 | 80 | 360 | 3.0 | 5.0 | 0.00 | 0.01 | 0.00 | 99 | 1013.7 |
| 20260905135349 | 79 | 360 | 1.0 | 4.0 | 0.00 | 0.01 | 0.00 | 99 | 1013.8 |
| 20260905134845 | 79 | 360 | 1.0 | 2.0 | 0.00 | 0.01 | 0.00 | 99 | 1013.8 |
| 20260905134343 | 78 | 360 | 0.0 | 2.0 | 0.00 | 0.01 | 0.00 | 99 | 1013.8 |
| 20260905133820 | 77 | 360 | 0.0 | 1.0 | 0.00 | 0.01 | 0.00 | 99 | 1013.7 |
| 20260905133317 | 76 | 360 | 0.0 | 1.0 | 0.00 | 0.01 | 0.00 | 99 | 1013.7 |
| 20260905132818 | 76 | 360 | 0.0 | 1.0 | 0.00 | 0.01 | 0.00 | 98 | 1013.7 |
| 20260905132316 | 75 | 360 | 0.0 | 1.0 | 0.00 | 0.01 | 0.00 | 98 | 1013.6 |
| 20260905131835 | 75 | 360 | 0.0 | 0.0 | 0.00 | 0.01 | 0.00 | 98 | 1013.5 |
| 20260905131353 | 75 | 360 | 0.0 | 0.0 | 0.00 | 0.01 | 0.00 | 98 | 1013.5 |
| 20260905130830 | 75 | 360 | 0.0 | 0.0 | 0.00 | 0.01 | 0.00 | 98 | 1013.5 |
| 20260905130328 | 74 | 360 | 0.0 | 0.0 | 0.00 | 0.01 | 0.00 | 98 | 1013.4 |
| 20260905125826 | 74 | 360 | 0.0 | 0.0 | 0.00 | 0.01 | 0.00 | 97 | 1013.3 |
| 20260905125315 | 74 | 360 | 0.0 | 0.0 | 0.00 | 0.01 | 0.00 | 97 | 1013.2 |
| 20260905124314 | 74 | 360 | 0.0 | 0.0 | 0.00 | 0.01 | 0.00 | 97 | 1013.1 |
| 20260905123834 | 74 | 360 | 0.0 | 0.0 | 0.00 | 0.01 | 0.00 | 97 | 1013.1 |
| 20260905123334 | 74 | 360 | 0.0 | 0.0 | 0.00 | 0.01 | 0.00 | 97 | 1013.0 |
| 20260905122812 | 74 | 360 | 0.0 | 0.0 | 0.00 | 0.01 | 0.00 | 97 | 1013.0 |
| 20260905122332 | 74 | 360 | 0.0 | 0.0 | 0.00 | 0.01 | 0.00 | 97 | 1013.0 |
| 20260905121832 | 74 | 360 | 0.0 | 0.0 | 0.00 | 0.01 | 0.00 | 97 | 1012.8 |
| 20260905121332 | 74 | 360 | 0.0 | 1.0 | 0.00 | 0.01 | 0.00 | 97 | 1012.9 |
| 20260905120831 | 74 | 360 | 0.0 | 2.0 | 0.00 | 0.01 | 0.00 | 97 | 1012.8 |
| 20260905120352 | 74 | 360 | 1.0 | 2.0 | 0.00 | 0.01 | 0.00 | 96 | 1012.8 |
| 20260905115828 | 74 | 360 | 0.0 | 1.0 | 0.00 | 0.01 | 0.00 | 96 | 1012.8 |
| 20260905115326 | 74 | 360 | 0.0 | 0.0 | 0.00 | 0.01 | 0.00 | 96 | 1012.8 |
| 20260905114817 | 74 | 360 | 0.0 | 0.0 | 0.00 | 0.01 | 0.00 | 96 | 1012.8 |
| 20260905114317 | 74 | 360 | 0.0 | 1.0 | 0.00 | 0.01 | 0.00 | 96 | 1012.8 |
| 20260905113816 | 74 | 360 | 0.0 | 0.0 | 0.00 | 0.01 | 0.00 | 96 | 1012.7 |
| 20260905113316 | 74 | 360 | 0.0 | 0.0 | 0.00 | 0.01 | 0.00 | 96 | 1012.7 |
| 20260905112815 | 74 | 360 | 0.0 | 0.0 | 0.00 | 0.01 | 0.00 | 96 | 1012.7 |
| 20260905112316 | 74 | 360 | 0.0 | 0.0 | 0.00 | 0.01 | 0.00 | 96 | 1012.7 |
| 20260905111835 | 74 | 360 | 0.0 | 0.0 | 0.00 | 0.01 | 0.00 | 96 | 1012.7 |
| 20260905111313 | 74 | 360 | 0.0 | 0.0 | 0.00 | 0.01 | 0.00 | 96 | 1012.6 |
| 20260905110812 | 74 | 360 | 0.0 | 0.0 | 0.00 | 0.01 | 0.00 | 96 | 1012.6 |
| 20260905110313 | 74 | 360 | 0.0 | 0.0 | 0.00 | 0.01 | 0.00 | 96 | 1012.6 |
| 20260905105833 | 74 | 360 | 0.0 | 0.0 | 0.00 | 0.01 | 0.00 | 96 | 1012.5 |
| 20260905105332 | 74 | 360 | 0.0 | 0.0 | 0.00 | 0.01 | 0.00 | 96 | 1012.4 |
| 20260905104850 | 74 | 360 | 0.0 | 0.0 | 0.00 | 0.01 | 0.00 | 96 | 1012.4 |
| 20260905104348 | 74 | 360 | 0.0 | 0.0 | 0.00 | 0.01 | 0.00 | 96 | 1012.4 |
| 20260905103828 | 74 | 360 | 0.0 | 0.0 | 0.00 | 0.01 | 0.00 | 96 | 1012.4 |
| 20260905103328 | 74 | 360 | 0.0 | 0.0 | 0.00 | 0.01 | 0.00 | 96 | 1012.3 |
| 20260905102828 | 74 | 360 | 0.0 | 0.0 | 0.00 | 0.01 | 0.00 | 96 | 1012.2 |
| 20260905102326 | 74 | 360 | 0.0 | 0.0 | 0.00 | 0.01 | 0.00 | 96 | 1012.1 |
| 20260905101826 | 75 | 360 | 0.0 | 0.0 | 0.00 | 0.01 | 0.00 | 96 | 1012.2 |
| 20260905101326 | 74 | 360 | 0.0 | 0.0 | 0.00 | 0.01 | 0.00 | 95 | 1012.1 |
| 20260905100825 | 75 | 360 | 0.0 | 0.0 | 0.00 | 0.01 | 0.00 | 95 | 1012.1 |
| 20260905100323 | 75 | 360 | 0.0 | 0.0 | 0.00 | 0.01 | 0.00 | 95 | 1012.1 |
| 20260905095842 | 75 | 360 | 0.0 | 0.0 | 0.00 | 0.01 | 0.00 | 95 | 1012.1 |
| 20260905095321 | 75 | 360 | 0.0 | 0.0 | 0.00 | 0.01 | 0.00 | 95 | 1012.1 |
| 20260905094821 | 75 | 360 | 0.0 | 0.0 | 0.00 | 0.01 | 0.00 | 95 | 1012.1 |
| 20260905094321 | 75 | 360 | 0.0 | 0.0 | 0.00 | 0.01 | 0.00 | 95 | 1012.2 |
| 20260905093821 | 75 | 360 | 0.0 | 0.0 | 0.00 | 0.01 | 0.00 | 95 | 1012.2 |
| 20260905093320 | 75 | 360 | 0.0 | 0.0 | 0.00 | 0.01 | 0.00 | 95 | 1012.1 |
| 20260905092839 | 75 | 360 | 0.0 | 0.0 | 0.00 | 0.01 | 0.00 | 95 | 1012.1 |
| 20260905092317 | 75 | 360 | 0.0 | 0.0 | 0.00 | 0.01 | 0.00 | 95 | 1012.1 |
| 20260905091817 | 75 | 360 | 0.0 | 0.0 | 0.00 | 0.01 | 0.00 | 95 | 1012.2 |
| 20260905091317 | 75 | 360 | 0.0 | 0.0 | 0.00 | 0.01 | 0.00 | 95 | 1012.2 |
| 20260905090816 | 76 | 360 | 0.0 | 0.0 | 0.00 | 0.01 | 0.00 | 95 | 1012.2 |
| 20260905090315 | 76 | 360 | 0.0 | 0.0 | 0.00 | 0.01 | 0.00 | 95 | 1012.2 |
| 20260905085814 | 76 | 360 | 0.0 | 0.0 | 0.00 | 0.01 | 0.00 | 95 | 1012.2 |
| 20260905085313 | 76 | 360 | 0.0 | 0.0 | 0.00 | 0.01 | 0.00 | 95 | 1012.1 |
| 20260905084848 | 76 | 360 | 0.0 | 0.0 | 0.00 | 0.01 | 0.00 | 95 | 1012.1 |
| 20260905084347 | 76 | 360 | 0.0 | 0.0 | 0.00 | 0.01 | 0.00 | 95 | 1012.1 |
| 20260905083845 | 76 | 360 | 0.0 | 0.0 | 0.00 | 0.01 | 0.00 | 94 | 1012.1 |
| 20260905083322 | 76 | 360 | 0.0 | 0.0 | 0.00 | 0.01 | 0.00 | 94 | 1012.2 |
| 20260905082843 | 76 | 360 | 0.0 | 0.0 | 0.00 | 0.01 | 0.00 | 94 | 1012.3 |
| 20260905082341 | 76 | 360 | 0.0 | 0.0 | 0.00 | 0.01 | 0.00 | 94 | 1012.3 |
| 20260905081819 | 76 | 360 | 0.0 | 0.0 | 0.00 | 0.01 | 0.00 | 94 | 1012.3 |
| 20260905081317 | 76 | 360 | 0.0 | 0.0 | 0.00 | 0.01 | 0.00 | 94 | 1012.5 |
| 20260905080857 | 76 | 360 | 0.0 | 0.0 | 0.00 | 0.01 | 0.00 | 94 | 1012.5 |
| 20260905080328 | 77 | 360 | 0.0 | 0.0 | 0.00 | 0.01 | 0.00 | 94 | 1012.5 |
| 20260905075827 | 77 | 360 | 0.0 | 0.0 | 0.00 | 0.01 | 0.00 | 94 | 1012.6 |
| 20260905075324 | 77 | 360 | 0.0 | 0.0 | 0.00 | 0.01 | 0.00 | 94 | 1012.7 |
| 20260905074825 | 77 | 360 | 0.0 | 0.0 | 0.00 | 0.01 | 0.00 | 93 | 1012.7 |
| 20260905074325 | 77 | 360 | 0.0 | 0.0 | 0.00 | 0.01 | 0.00 | 93 | 1012.6 |
| 20260905073824 | 77 | 360 | 0.0 | 0.0 | 0.00 | 0.01 | 0.00 | 94 | 1012.7 |
| 20260905073324 | 77 | 360 | 0.0 | 0.0 | 0.00 | 0.01 | 0.00 | 93 | 1012.7 |
| 20260905072826 | 77 | 360 | 0.0 | 0.0 | 0.00 | 0.01 | 0.00 | 93 | 1012.8 |
| 20260905072344 | 77 | 360 | 0.0 | 0.0 | 0.00 | 0.01 | 0.00 | 93 | 1012.8 |
| 20260905071823 | 77 | 360 | 0.0 | 0.0 | 0.00 | 0.01 | 0.00 | 93 | 1012.9 |
| 20260905071322 | 78 | 360 | 0.0 | 0.0 | 0.00 | 0.01 | 0.00 | 92 | 1013.0 |
| 20260905070821 | 78 | 360 | 0.0 | 0.0 | 0.00 | 0.01 | 0.00 | 92 | 1013.0 |
| 20260905070321 | 78 | 360 | 0.0 | 0.0 | 0.00 | 0.01 | 0.00 | 92 | 1012.9 |
| 20260905065821 | 78 | 360 | 0.0 | 0.0 | 0.00 | 0.01 | 0.00 | 92 | 1012.9 |
| 20260905065319 | 78 | 360 | 0.0 | 0.0 | 0.00 | 0.01 | 0.00 | 92 | 1012.9 |
| 20260905064818 | 78 | 360 | 0.0 | 0.0 | 0.00 | 0.01 | 0.00 | 91 | 1012.9 |
| 20260905064318 | 78 | 360 | 0.0 | 0.0 | 0.00 | 0.01 | 0.00 | 91 | 1012.9 |
| 20260905063817 | 79 | 360 | 0.0 | 0.0 | 0.00 | 0.01 | 0.00 | 92 | 1013.0 |
| 20260905063318 | 79 | 360 | 0.0 | 0.0 | 0.00 | 0.01 | 0.00 | 91 | 1013.1 |
| 20260905062817 | 79 | 360 | 0.0 | 0.0 | 0.00 | 0.01 | 0.00 | 90 | 1013.0 |
| 20260905062315 | 79 | 360 | 0.0 | 0.0 | 0.00 | 0.01 | 0.00 | 90 | 1013.0 |
| 20260905061851 | 79 | 360 | 0.0 | 0.0 | 0.00 | 0.01 | 0.00 | 90 | 1012.9 |
| 20260905061328 | 79 | 360 | 0.0 | 0.0 | 0.00 | 0.01 | 0.00 | 90 | 1013.0 |
| 20260905060849 | 80 | 360 | 0.0 | 0.0 | 0.00 | 0.01 | 0.00 | 90 | 1013.1 |
| 20260905060327 | 80 | 360 | 0.0 | 2.0 | 0.00 | 0.01 | 0.00 | 89 | 1013.1 |
| 20260905055819 | 80 | 360 | 0.0 | 2.0 | 0.00 | 0.01 | 0.00 | 89 | 1013.1 |
| 20260905055313 | 80 | 360 | 1.0 | 3.0 | 0.00 | 0.01 | 0.00 | 89 | 1013.1 |
| 20260905054832 | 80 | 360 | 1.0 | 3.0 | 0.00 | 0.01 | 0.00 | 89 | 1013.1 |
| 20260905054330 | 80 | 360 | 1.0 | 2.0 | 0.00 | 0.01 | 0.00 | 88 | 1013.1 |
| 20260905053830 | 80 | 360 | 1.0 | 3.0 | 0.00 | 0.01 | 0.00 | 88 | 1013.2 |